Warsaw, Poland

10:32 PM CEST on October 01, 2016 (GMT +0200)
Okecie

Weather History for EPWA - February, 2013

Change the Weather History Date:

Thursday, February 14, 2013

  Actual Average Record
Temperature  
Mean Temperature 33 °F -  
Max Temperature 34 °F 35 °F 50 °F (1998)
Min Temperature 32 °F 25 °F 12 °F (2011)
Degree Days  
Heating Degree Days 32    
Moisture  
Dew Point 30 °F    
Average Humidity 87    
Maximum Humidity 93    
Minimum Humidity 74    
Precipitation  
Precipitation 0.00 in - - ()
Sea Level Pressure  
Sea Level Pressure 30.26 in    
Wind  
Wind Speed 7 mph ()    
Max Wind Speed 12 mph    
Max Gust Speed -    
Visibility 6.0 miles    
Events      
Averages and records for this station are not official NWS values.
T = Trace of Precipitation, MM = Missing Value Source: Averaged Metar Reports

Daily Weather History Graph

Daily Weather History Graph

Search for Another Location

Airport or City:

Trip Planner

Search our weather history database for the weather conditions in past years. The results will help you decide how hot, cold, wet, or windy it might be!

Date:

Astronomy

Feb. 14, 2013 Rise Set
Actual Time 6:53 AM CET 4:48 PM CET
Civil Twilight 6:18 AM CET 5:23 PM CET
Nautical Twilight 5:38 AM CET 6:02 PM CET
Astronomical Twilight 4:59 AM CET 6:42 PM CET
Moon 8:05 AM CET (2/14) 10:17 PM CET (2/14)
Length of Visible Light 11h 05m
Length of Day
9h 54m
Waxing Crescent, 19% of the Moon is Illuminated
Feb 14
Waxing Crescent
Feb 17
First Quarter
Feb 25
Full
Mar 4
Last Quarter
Mar 11
New

Hourly Weather History & Observations

Time (CET) Temp. Windchill Dew Point Humidity Pressure Visibility Wind Dir Wind Speed Gust Speed Precip Events Conditions
12:00 AM 33.8 °F 26.4 °F 30.2 °F 87% 30.30 in 6.2 mi East 9.2 mph - N/A   Mostly Cloudy
12:30 AM 33.8 °F 27.0 °F 30.2 °F 87% 30.30 in 6.2 mi East 8.1 mph - N/A   Mostly Cloudy
1:00 AM 33 °F - 29 °F 80% 30.32 in 6 mi East 4.5 mph - -   Overcast
1:00 AM 33.8 °F 28.6 °F 30.2 °F 87% 30.30 in 6.2 mi East 5.8 mph - N/A   Mostly Cloudy
1:30 AM 33.8 °F 27.7 °F 30.2 °F 87% 30.30 in 6.2 mi ENE 6.9 mph - N/A   Mostly Cloudy
2:00 AM 33.8 °F 28.6 °F 30.2 °F 87% 30.30 in 6.2 mi NE 5.8 mph - N/A   Mostly Cloudy
2:30 AM 33.8 °F 28.6 °F 28.4 °F 81% 30.30 in 6.2 mi NE 5.8 mph - N/A   Mostly Cloudy
3:00 AM 32.0 °F 25.6 °F 30.2 °F 93% 30.27 in 6.2 mi ENE 6.9 mph - N/A   Mostly Cloudy
3:30 AM 32.0 °F 25.6 °F 30.2 °F 93% 30.27 in 6.2 mi ENE 6.9 mph - N/A   Mostly Cloudy
4:00 AM 33 °F - 29 °F 79% 30.32 in 6 mi ENE 6.7 mph - -   Overcast
4:00 AM 32.0 °F 24.8 °F 30.2 °F 93% 30.27 in 6.2 mi ENE 8.1 mph - N/A   Mostly Cloudy
4:30 AM 32.0 °F 25.6 °F 30.2 °F 93% 30.27 in 6.2 mi ENE 6.9 mph - N/A   Mostly Cloudy
5:00 AM 32.0 °F 26.4 °F 30.2 °F 93% 30.27 in 6.2 mi ENE 5.8 mph - N/A   Mostly Cloudy
5:30 AM 32.0 °F 26.4 °F 30.2 °F 93% 30.27 in 6.2 mi ENE 5.8 mph - N/A   Mostly Cloudy
6:00 AM 32.0 °F 26.4 °F 30.2 °F 93% 30.27 in 6.2 mi ENE 5.8 mph - N/A   Mostly Cloudy
6:30 AM 32.0 °F 26.4 °F 30.2 °F 93% 30.27 in 6.2 mi ENE 5.8 mph - N/A   Mostly Cloudy
7:00 AM 33 °F - 29 °F 82% 30.32 in 6 mi ENE 4.5 mph - -   Overcast
7:00 AM 32.0 °F 26.4 °F 30.2 °F 93% 30.27 in 6.2 mi ENE 5.8 mph - N/A   Mostly Cloudy
7:30 AM 32.0 °F 25.6 °F 30.2 °F 93% 30.27 in 6.2 mi ENE 6.9 mph - N/A   Mostly Cloudy
8:00 AM 32.0 °F 25.6 °F 30.2 °F 93% 30.30 in 6.2 mi East 6.9 mph - N/A   Mostly Cloudy
8:30 AM 33.8 °F 27.7 °F 30.2 °F 87% 30.30 in 6.2 mi ENE 6.9 mph - N/A   Mostly Cloudy
9:00 AM 33.8 °F 27.7 °F 30.2 °F 87% 30.30 in 6.2 mi ENE 6.9 mph - N/A   Mostly Cloudy
9:30 AM 33.8 °F 27.0 °F 30.2 °F 87% 30.27 in 6.2 mi East 8.1 mph - N/A   Mostly Cloudy
10:00 AM 33.8 °F 27.0 °F 30.2 °F 87% 30.27 in 6.2 mi East 8.1 mph - N/A   Mostly Cloudy
10:30 AM 33.8 °F 27.7 °F 30.2 °F 87% 30.27 in 6.2 mi East 6.9 mph - N/A   Mostly Cloudy
11:00 AM 33.8 °F 27.0 °F 30.2 °F 87% 30.30 in 6.2 mi East 8.1 mph - N/A   Mostly Cloudy
11:30 AM 33.8 °F 27.7 °F 30.2 °F 87% 30.27 in 6.2 mi East 6.9 mph - N/A   Mostly Cloudy
12:00 PM 33.8 °F 27.7 °F 30.2 °F 87% 30.27 in 5.0 mi East 6.9 mph - N/A   Mostly Cloudy
12:30 PM 33.8 °F 27.0 °F 30.2 °F 87% 30.27 in 5.0 mi East 8.1 mph - N/A   Mostly Cloudy
1:00 PM 34 °F - 30 °F 80% 30.29 in 5 mi East 8.9 mph - -   Mist
1:00 PM 33.8 °F 26.4 °F 30.2 °F 87% 30.27 in 5.0 mi East 9.2 mph - N/A   Mostly Cloudy
1:30 PM 33.8 °F 27.0 °F 30.2 °F 87% 30.24 in 5.0 mi East 8.1 mph - N/A   Mostly Cloudy
2:00 PM 33.8 °F 27.0 °F 30.2 °F 87% 30.24 in 5.0 mi East 8.1 mph - N/A   Mostly Cloudy
2:30 PM 33.8 °F 27.0 °F 30.2 °F 87% 30.24 in 5.0 mi East 8.1 mph - N/A   Mostly Cloudy
3:00 PM 33.8 °F 27.7 °F 30.2 °F 87% 30.24 in 5.0 mi East 6.9 mph - N/A   Mostly Cloudy
3:30 PM 33.8 °F 27.7 °F 30.2 °F 87% 30.24 in 5.0 mi East 6.9 mph - N/A   Mostly Cloudy
4:00 PM 34 °F - 31 °F 83% 30.27 in 5 mi East 8.9 mph - -   Mist
4:00 PM 33.8 °F 25.8 °F 30.2 °F 87% 30.24 in 5.0 mi East 10.4 mph - N/A   Mostly Cloudy
4:30 PM 33.8 °F 26.4 °F 30.2 °F 87% 30.24 in 5.0 mi East 9.2 mph - N/A   Mostly Cloudy
5:00 PM 33.8 °F 27.0 °F 30.2 °F 87% 30.24 in 5.0 mi East 8.1 mph - N/A   Mostly Cloudy
5:30 PM 33.8 °F 26.4 °F 30.2 °F 87% 30.24 in 6.2 mi East 9.2 mph - N/A   Mostly Cloudy
6:00 PM 33.8 °F 25.3 °F 28.4 °F 81% 30.24 in 6.2 mi ESE 11.5 mph - N/A   Mostly Cloudy
6:30 PM 33.8 °F 26.4 °F 28.4 °F 81% 30.24 in 6.2 mi East 9.2 mph - N/A   Mostly Cloudy
7:00 PM 34 °F - 29 °F 74% 30.26 in 6 mi East 6.7 mph - -   Mostly Cloudy
7:00 PM 33.8 °F 27.0 °F 28.4 °F 81% 30.21 in 6.2 mi East 8.1 mph - N/A   Mostly Cloudy
7:30 PM 33.8 °F 26.4 °F 28.4 °F 81% 30.21 in 6.2 mi East 9.2 mph - N/A   Mostly Cloudy
8:00 PM 33.8 °F 27.0 °F 28.4 °F 81% 30.21 in 6.2 mi East 8.1 mph - N/A   Mostly Cloudy
8:30 PM 33.8 °F 27.0 °F 30.2 °F 87% 30.21 in 6.2 mi East 8.1 mph - N/A   Mostly Cloudy
9:00 PM 33.8 °F 27.7 °F 30.2 °F 87% 30.21 in 6.2 mi ENE 6.9 mph - N/A   Mostly Cloudy
9:30 PM 33.8 °F 27.0 °F 30.2 °F 87% 30.21 in 6.2 mi ENE 8.1 mph - N/A   Mostly Cloudy
10:00 PM 34 °F - 29 °F 75% 30.24 in 9 mi East 8.9 mph - -   Mostly Cloudy
10:00 PM 33.8 °F 27.0 °F 30.2 °F 87% 30.21 in 6.2 mi ENE 8.1 mph - N/A   Mostly Cloudy
10:30 PM 33.8 °F 25.8 °F 30.2 °F 87% 30.21 in 6.2 mi East 10.4 mph - N/A   Mostly Cloudy
11:00 PM 33.8 °F 25.8 °F 30.2 °F 87% 30.18 in 6.2 mi East 10.4 mph - N/A   Mostly Cloudy
11:30 PM 33.8 °F 25.8 °F 30.2 °F 87% 30.18 in 6.2 mi East 10.4 mph - N/A   Mostly Cloudy